Погода в Русской Березовке

Россия / Белгородская область     50°40′34″N   35°43′55″E
темп.,
°C
ветер,
м/с
пор.,
м/с
влажн.,
%
обл.,
%
осадки,
мм/ч
давл.,
гПа
погр.,
м
24 сентября, пт
пт2400:00+7зсз2391100 0.1 1012180
03:00+7зюз3592100 0.3 1011301
06:00+7ююз3890100 0.0 1010338
09:00+7ю6118691 0.0 1008737
12:00+11ююз91162100 0.0 10061318
15:00+8ю81489100 1.4 1005867
18:00+8ю81394100 3.3 1004874
21:00+8ююз5996100 4.4 1004685
25 сентября, сб
сб2500:00+8ююз4797100 0.1 1004374
03:00+7юз229899 0.1 100459
06:00+8ююз1194100 0.0 100528
09:00+10зюз228796 0.0 1007306
12:00+12зюз227642 0.1 1009675
15:00+14з456183 0.4 10101207
18:00+11зсз5872100 0.1 1012399
21:00+10з3784100 0.1 1013311
26 сентября, вс
вс2600:00+10зюз4989100 0.3 1013474
03:00+10юз51191100 0.9 1012478
06:00+10зюз51295100 0.4 1011389
09:00+12зсз7129074 0.6 1011598
12:00+11сз71178100 0.1 10131144
15:00+14сз9125394 0.1 10131816
18:00+12сз8136329 0.1 10141168
21:00+9ссз613755 0.1 1016785
27 сентября, пн
пн2700:00+7сз6128639 0.0 1017513
03:00+8ссз6128267 0.0 1018597
06:00+7ссз5109073 0.0 1019451
09:00+9с687899 0.0 1020662
12:00+13с6659100 0.1 10211394
15:00+13ссв566599 0.1 1022906
18:00+12ссв4768100 0.0 1022483
21:00+10с3780100 0.2 1023248
28 сентября, вт
вт2800:00+9ссв3685100 0.1 1024205
03:00+7ссв358941 0.1 1025106
06:00+6ссв369490 0.0 1026132
09:00+9св467844 0.0 1026396
12:00+13св455875 0.1 10271325
15:00+13св4456100 0.3 10271217
18:00+11св3667100 0.1 1028285
21:00+9св487794 0.3 1028336